Wise, VA

11:58 AM EST on December 07, 2019 (GMT -0500)
Lonesome Pine

Weather History for KLNP - October, 2019

Change the Weather History Date:

Sunday, October 27, 2019

  Actual Average Record
Temperature  
Mean Temperature 58 °F -  
Max Temperature 66 °F 60 °F 75 °F (2014)
Min Temperature 51 °F 42 °F 26 °F (2001)
Degree Days  
Heating Degree Days 6    
Growing Degree Days 8 (Base 50)    
Moisture  
Dew Point 54 °F    
Average Humidity 82    
Maximum Humidity 100    
Minimum Humidity 59    
Precipitation  
Precipitation 0.22 in - - ()
Sea Level Pressure  
Sea Level Pressure 30.00 in    
Wind  
Wind Speed 8 mph ()    
Max Wind Speed 16 mph    
Max Gust Speed 28 mph    
Visibility 9.8 miles    
Events Rain    
Averages and records for this station are not official NWS values.
T = Trace of Precipitation, MM = Missing Value Source: Averaged Metar Reports

Daily Weather History Graph

Daily Weather History Graph

Search for Another Location

Airport or City:

Astronomy

Oct. 27, 2019 Rise Set
Actual Time 7:48 AM EDT 6:38 PM EDT
Civil Twilight 7:22 AM EDT 7:05 PM EDT
Nautical Twilight 6:51 AM EDT 7:35 PM EDT
Astronomical Twilight 6:21 AM EDT 8:05 PM EDT
Moon 6:58 AM EDT (10/27) 6:45 PM EDT (10/27)
Length of Visible Light 11h 42m
Length of Day
10h 49m
Waning Crescent, 0% of the Moon is Illuminated
Oct 27
Waning Crescent
Oct 27
New
Nov 4
First Quarter
Nov 12
Full
Nov 19
Last Quarter

Hourly Weather History & Observations

Time (EDT) Temp. Dew Point Humidity Pressure Visibility Wind Dir Wind Speed Gust Speed Precip Events Conditions
12:15 AM 62.6 °F 59.0 °F 88% 29.79 in 10.0 mi SE 12.7 mph 19.6 mph N/A   Mostly Cloudy
12:35 AM 64.4 °F 59.0 °F 83% 29.78 in 10.0 mi SSE 16.1 mph 27.6 mph N/A   Scattered Clouds
1:15 AM 64.4 °F 60.8 °F 88% 29.78 in 10.0 mi SSE 13.8 mph 21.9 mph N/A   Mostly Cloudy
1:35 AM 64.4 °F 62.6 °F 94% 29.77 in 10.0 mi SSE 11.5 mph 23.0 mph N/A   Mostly Cloudy
1:55 AM 66.2 °F 62.6 °F 88% 29.79 in 10.0 mi South 10.4 mph 18.4 mph N/A   Mostly Cloudy
2:15 AM 66.2 °F 62.6 °F 88% 29.79 in 10.0 mi South 10.4 mph 16.1 mph N/A   Overcast
2:35 AM 66.2 °F 62.6 °F 88% 29.81 in 10.0 mi South 10.4 mph - 0.02 in Rain Rain
2:55 AM 64.4 °F 64.4 °F 100% 29.82 in 4.0 mi WSW 9.2 mph 17.3 mph 0.10 in Rain Heavy Rain
3:15 AM 64.4 °F 64.4 °F 100% 29.83 in 5.0 mi WSW 10.4 mph - 0.07 in Rain Heavy Rain
3:35 AM 64.4 °F 64.4 °F 100% 29.82 in 10.0 mi WSW 15.0 mph 21.9 mph 0.09 in Rain Rain
3:55 AM 64.4 °F 64.4 °F 100% 29.83 in 7.0 mi SW 15.0 mph 21.9 mph 0.11 in Rain Rain
4:15 AM 64.4 °F 64.4 °F 100% 29.83 in 10.0 mi SW 12.7 mph 20.7 mph 0.01 in   Overcast
4:35 AM 64.4 °F 64.4 °F 100% 29.85 in 10.0 mi West 10.4 mph - 0.01 in   Overcast
4:55 AM 64.4 °F 64.4 °F 100% 29.87 in 10.0 mi WSW 9.2 mph 18.4 mph 0.01 in   Overcast
5:35 AM 62.6 °F 57.2 °F 82% 29.90 in 10.0 mi WSW 11.5 mph 27.6 mph N/A   Overcast
5:55 AM 60.8 °F 55.4 °F 82% 29.92 in 10.0 mi West 11.5 mph 17.3 mph N/A   Overcast
6:15 AM 60.8 °F 53.6 °F 77% 29.92 in 10.0 mi SW 11.5 mph - N/A   Scattered Clouds
6:35 AM 59.0 °F 53.6 °F 82% 29.93 in 10.0 mi WSW 11.5 mph - N/A   Clear
6:55 AM 57.2 °F 53.6 °F 88% 29.95 in 10.0 mi West 4.6 mph - N/A   Clear
7:15 AM 55.4 °F 55.4 °F 100% 29.95 in 10.0 mi WSW 8.1 mph - N/A   Scattered Clouds
7:35 AM 55.4 °F 53.6 °F 94% 29.96 in 10.0 mi WNW 5.8 mph - N/A   Scattered Clouds
7:55 AM 53.6 °F 53.6 °F 100% 29.97 in 10.0 mi WNW 4.6 mph - N/A   Clear
8:15 AM 53.6 °F 51.8 °F 94% 29.97 in 10.0 mi West 4.6 mph - N/A   Scattered Clouds
8:35 AM 53.6 °F 51.8 °F 94% 29.98 in 10.0 mi West 4.6 mph - N/A   Clear
8:55 AM 53.6 °F 51.8 °F 94% 30.00 in 10.0 mi West 5.8 mph - N/A   Clear
9:15 AM 55.4 °F 51.8 °F 88% 30.00 in 10.0 mi WSW 5.8 mph - N/A   Clear
9:35 AM 55.4 °F 51.8 °F 88% 30.01 in 10.0 mi West 5.8 mph - N/A   Clear
9:55 AM 57.2 °F 51.8 °F 82% 30.02 in 10.0 mi West 8.1 mph - N/A   Mostly Cloudy
10:15 AM 55.4 °F 51.8 °F 88% 30.03 in 10.0 mi West 6.9 mph - N/A   Overcast
10:35 AM 57.2 °F 51.8 °F 82% 30.03 in 10.0 mi West 8.1 mph - N/A   Overcast
10:55 AM 59.0 °F 51.8 °F 77% 30.03 in 10.0 mi WSW 5.8 mph - N/A   Overcast
11:15 AM 59.0 °F 51.8 °F 77% 30.03 in 10.0 mi SSW 4.6 mph - N/A   Mostly Cloudy
11:35 AM 60.8 °F 51.8 °F 72% 30.04 in 10.0 mi WSW 5.8 mph - N/A   Overcast
11:55 AM 60.8 °F 51.8 °F 72% 30.05 in 10.0 mi WSW 6.9 mph - N/A   Overcast
12:15 PM 60.8 °F 51.8 °F 72% 30.05 in 10.0 mi West 6.9 mph - N/A   Overcast
12:35 PM 60.8 °F 51.8 °F 72% 30.05 in 10.0 mi NNW 5.8 mph - N/A   Overcast
12:55 PM 60.8 °F 51.8 °F 72% 30.05 in 10.0 mi NW 6.9 mph - N/A   Overcast
1:15 PM 60.8 °F 51.8 °F 72% 30.05 in 10.0 mi West 5.8 mph - N/A   Overcast
1:35 PM 60.8 °F 51.8 °F 72% 30.04 in 10.0 mi West 4.6 mph - N/A   Overcast
1:55 PM 62.6 °F 51.8 °F 68% 30.04 in 10.0 mi North 4.6 mph - N/A   Overcast
2:15 PM 62.6 °F 51.8 °F 68% 30.04 in 10.0 mi WNW 3.5 mph - N/A   Overcast
2:35 PM 62.6 °F 51.8 °F 68% 30.04 in 10.0 mi NW 4.6 mph - N/A   Overcast
2:55 PM 64.4 °F 51.8 °F 64% 30.04 in 10.0 mi NW 3.5 mph - N/A   Overcast
3:15 PM 62.6 °F 51.8 °F 68% 30.04 in 10.0 mi NNW 3.5 mph - N/A   Overcast
3:35 PM 62.6 °F 51.8 °F 68% 30.04 in 10.0 mi NNW 3.5 mph - N/A   Mostly Cloudy
3:55 PM 64.4 °F 50.0 °F 59% 30.05 in 10.0 mi West 4.6 mph - N/A   Mostly Cloudy
4:15 PM 64.4 °F 51.8 °F 64% 30.05 in 10.0 mi WNW 5.8 mph - N/A   Scattered Clouds
4:35 PM 64.4 °F 50.0 °F 59% 30.05 in 10.0 mi North 5.8 mph - N/A   Clear
4:55 PM 64.4 °F 50.0 °F 59% 30.06 in 10.0 mi NNW 5.8 mph - N/A   Clear
5:15 PM 64.4 °F 50.0 °F 59% 30.07 in 10.0 mi NW 6.9 mph - N/A   Clear
5:35 PM 64.4 °F 50.0 °F 59% 30.07 in 10.0 mi NNW 5.8 mph - N/A   Clear
5:55 PM 62.6 °F 48.2 °F 59% 30.07 in 10.0 mi NW 4.6 mph - N/A   Clear
6:15 PM 62.6 °F 48.2 °F 59% 30.08 in 10.0 mi NNW 3.5 mph - N/A   Clear
6:35 PM 60.8 °F 48.2 °F 63% 30.08 in 10.0 mi Calm Calm - N/A   Clear
6:55 PM 59.0 °F 48.2 °F 67% 30.08 in 10.0 mi Calm Calm - N/A   Clear
7:15 PM 55.4 °F 48.2 °F 77% 30.09 in 10.0 mi Calm Calm - N/A   Clear
7:35 PM 59.0 °F 48.2 °F 67% 30.09 in 10.0 mi Calm Calm - N/A   Clear
7:55 PM 55.4 °F 48.2 °F 77% 30.09 in 10.0 mi Calm Calm - N/A   Clear
8:15 PM 53.6 °F 48.2 °F 82% 30.10 in 10.0 mi WSW 3.5 mph - N/A   Clear
8:35 PM 55.4 °F 48.2 °F 77% 30.10 in 10.0 mi Calm Calm - N/A   Clear
8:55 PM 53.6 °F 46.4 °F 77% 30.10 in 10.0 mi Calm Calm - N/A   Clear
9:15 PM 51.8 °F 50.0 °F 94% 30.11 in 10.0 mi Calm Calm - N/A   Clear
9:35 PM 51.8 °F 50.0 °F 94% 30.11 in 10.0 mi SSW 3.5 mph - N/A   Clear
9:55 PM 51.8 °F 51.8 °F 100% 30.11 in 10.0 mi Calm Calm - N/A   Clear
10:15 PM 51.8 °F 51.8 °F 100% 30.12 in 10.0 mi Calm Calm - N/A   Clear
10:35 PM 51.8 °F 51.8 °F 100% 30.12 in 10.0 mi Calm Calm - N/A   Clear
11:15 PM 51.8 °F 51.8 °F 100% 30.12 in 10.0 mi Calm Calm - N/A   Clear
11:35 PM 51.8 °F 51.8 °F 100% 30.12 in 10.0 mi Calm Calm - N/A   Clear
11:55 PM 51.8 °F 51.8 °F 100% 30.11 in 10.0 mi Calm Calm - N/A   Clear